This demonstration page uses our WeatherBlox Daily Observations layout. Learn more.

Left ArrowRight Arrow

44.89941, -97.11507

Hourly Observations for June 27, 2021

Temp ( °F °C ) Dew Point ( °F °C ) Humidity (%) Winds ( mph kmh ) Pressure ( in mb ) Visibility ( mi km ) Precip ( " mm )
12:53 am 00:53 Cloudy 63 17.2 61 16.1 93 93 Calm 29.90 1013 10 16 0.00 0.00
1:53 am 01:53 Clear 61 16.1 59 15 93 93 W 3 6 29.89 1012 10 16 0.00 0.00
2:53 am 02:53 Clear 60 15.6 59 15 96 96 Calm 29.89 1012 10 16 0.00 0.00
3:53 am 03:53 Clear with Mist and Fog 60 15.6 59 15 96 96 Calm 29.88 1012 6 10 0.00 0.00
4:11 am 04:11 Clear with Mist and Fog 60 15.6 60 15.6 100 100 Calm 29.87 1012 2 2 0.00 0.00
4:13 am 04:13 Clear with Mist and Fog 60 15.6 60 15.6 100 100 Calm 29.87 1012 1 1 0.00 0.00
4:23 am 04:23 Clear with Mist and Fog 61 16.1 60 15.6 97 97 Calm 29.87 1011 2 3 0.00 0.00
4:30 am 04:30 Clear with Mist and Fog 60 15.6 59 15 96 96 Calm 29.88 1012 3 5 0.00 0.00
4:39 am 04:39 Clear with Mist and Fog 60 15.6 59 15 96 96 Calm 29.88 1012 3 4 0.00 0.00
4:53 am 04:53 Clear 60 15.6 59 15 96 96 Calm 29.89 1012 8 13 0.00 0.00
4:59 am 04:59 Mostly Clear with Mist and Fog 60 15.6 59 15 96 96 Calm 29.88 1012 1 2 0.00 0.00
5:06 am 05:06 Mostly Cloudy with Mist and Fog 59 15 58 14.4 96 96 Calm 29.89 1012 1 2 0.00 0.00
5:09 am 05:09 Clear with Mist and Fog 59 15 58 14.4 96 96 Calm 29.89 1012 3 4 0.00 0.00
5:16 am 05:16 Clear 59 15 58 14.4 96 96 Calm 29.89 1012 8 13 0.00 0.00
5:31 am 05:31 Mostly Clear with Mist and Fog 58 14.4 58 14.4 100 100 Calm 29.89 1012 3 5 0.00 0.00
5:46 am 05:46 Sunny with Mist and Fog 58 14.4 58 14.4 100 100 Calm 29.89 1012 1 2 0.00 0.00
5:53 am 05:53 Sunny with Fog 59 15 59 15 100 100 Calm 29.90 1012 0 0 0.00 0.00
6:02 am 06:02 Sunny with Fog 58 14.4 58 14.4 100 100 Calm 29.90 1013 1 1 0.00 0.00
6:09 am 06:09 Sunny with Fog 59 15 58 14.4 96 96 Calm 29.90 1012 0 0 0.00 0.00
6:16 am 06:16 Mostly Cloudy with Fog 59 15 59 15 100 100 Calm 29.90 1012 0 0 0.00 0.00
6:33 am 06:33 Mostly Cloudy with Fog 57 13.9 57 13.9 100 100 Calm 29.90 1013 N/A 0.00 0.00
6:42 am 06:42 Mostly Cloudy with Fog 57 13.9 57 13.9 100 100 Calm 29.90 1013 N/A 0.00 0.00
6:53 am 06:53 Mostly Cloudy with Fog 59 15 59 15 100 100 Calm 29.91 1013 0 0 0.00 0.00
7:08 am 07:08 Mostly Cloudy with Mist and Fog 61 16.1 61 16.1 100 100 Calm 29.90 1013 1 2 0.00 0.00
7:11 am 07:11 Sunny with Mist and Fog 61 16.1 61 16.1 100 100 Calm 29.91 1013 2 2 0.00 0.00
7:16 am 07:16 Sunny with Mist and Fog 61 16.1 61 16.1 100 100 Calm 29.91 1013 3 5 0.00 0.00
7:53 am 07:53 Mostly Sunny 63 17.2 61 16.1 93 93 NNW 3 6 29.93 1014 10 16 0.00 0.00
8:53 am 08:53 Cloudy 69 20.6 60 15.6 73 73 WNW 3 6 29.94 1014 10 16 0.00 0.00
9:53 am 09:53 Mostly Sunny 71 21.7 59 15 66 66 WNW 7 11 29.94 1014 10 16 0.00 0.00
10:53 am 10:53 Sunny 74 23.3 59 15 60 60 W 8 13 29.95 1014 10 16 0.00 0.00
11:53 am 11:53 Mostly Cloudy 75 23.9 60 15.6 60 60 NW 13 20 29.96 1015 10 16 0.00 0.00
12:53 pm 12:53 Sunny 76 24.4 59 15 56 56 WNW 8 13 29.95 1014 10 16 0.00 0.00
1:53 pm 13:53 Partly Cloudy 76 24.4 54 12.2 47 47 WNW 9 15 29.94 1014 10 16 0.00 0.00
2:53 pm 14:53 Sunny 79 26.1 54 12.2 42 42 W 8 13 29.93 1014 10 16 0.00 0.00
3:53 pm 15:53 Sunny 79 26.1 53 11.7 41 41 WNW 10 17 29.93 1014 10 16 0.00 0.00
4:53 pm 16:53 Sunny 81 27.2 55 12.8 41 41 WNW 6 9 29.92 1013 10 16 0.00 0.00
5:53 pm 17:53 Partly Cloudy 81 27.2 55 12.8 41 41 VRB 7 11 29.93 1013 10 16 0.00 0.00
6:53 pm 18:53 Mostly Sunny 78 25.6 56 13.3 47 47 SSW 3 6 29.92 1013 10 16 0.00 0.00
7:53 pm 19:53 Mostly Sunny 73 22.8 62 16.7 69 69 WSW 6 9 29.94 1014 10 16 0.00 0.00
8:16 pm 20:16 Partly Cloudy with Nearby Thunderstorms 72 22.2 60 15.6 66 66 WNW 9 15 29.90 1013 10 16 0.00 0.00
8:53 pm 20:53 Partly Cloudy with Nearby Thunderstorms 71 21.7 57 13.9 61 61 WNW 7 11 29.96 1014 10 16 0.00 0.00
9:04 pm 21:04 Mostly Sunny 70 21.1 58 14.4 66 66 NNE 9 15 29.92 1013 10 16 0.00 0.00
9:53 pm 21:53 Clear 67 19.4 57 13.9 71 71 NE 6 9 29.97 1015 10 16 0.00 0.00
10:53 pm 22:53 Cloudy 67 19.4 59 15 76 76 Calm 29.98 1015 10 16 0.00 0.00
11:53 pm 23:53 Partly Cloudy 65 18.3 59 15 81 81 Calm 29.98 1015 10 16 0.00 0.00

Powered by AerisWeather